Showing default

GOKTURK 2, 39030

Orbit data source: Space-Track

GOKTURK 2, 39030 is a payload satellite owned by MSB (TR) in SSO that was launched on Tue, 18 Dec 2012 UTC via a CHANG ZHENG 2D launch vehicle from the Jiuquan Satellite Launch Center, China (JSC). Payload-class satellites include a variety of spacecraft equipped with specific instruments for various scientific and technological missions. These include communications satellites like Starlink; space stations such as the ISS; scientific satellites like the Hubble; Earth observation satellites from companies like Planet Labs, Umbra, and HawkEye 360; GPS; miniature CubeSats for education and research; and military/defense satellites.

Loading next visibility...
Identifier
39030, 2012-073A
Orbit
SSO
Country
Flag of TRTR / TURK
Related business
Manufacturer
TUBITAK-UZAY
Mission
Operational Civil Imaging
Bus & Motor
?, UNK
Mass
450 kg wet, 408 kg dry
Launch date (UTC)
2012-12-18 (14 years ago)
Launch vehicle
CHANG ZHENG 2D
Launch site
Jiuquan Satellite Launch Center, China (JSC)
Object type
Payload
Rocket body
Debris
Shape & HBR
Hex Cyl + 3 Pan, 2.5 m
Radar Cross Section
3.453 m², Large (>1 m²)

Expand to show TLE details & history
Last TLE update: 1 day ago

TLE from 1 day ago
0 GOKTURK 2
1 39030U 12073A   26172.48863488  .00000068  00000-0  16886-4 0  9992
2 39030  97.6820   9.7037 0001389  58.2802 301.8544 14.75545326725147
Epoch: 2026-06-21T11:43Z
TLE epoch observation values (Epoch: 2026-06-21T11:43:38.053Z)
Latitude
0.00003°
Longitude
-75.89304°
Altitude
645.928 km
Speed
7.535 km/s
True Right ascension
00h 38m 48s
True Declination
0° 00' 00"
Sunlit
Object was in daylight at epoch
Visualization orbit readout
Latitude
Unknown
Longitude
Unknown
Altitude
Unknown
Speed
Unknown
Apparent Right ascension
Unknown
Apparent Declination
Unknown
Sunlit
N/A
Visualization observer readout
Local Sidereal Time
23:08:26
Azimuth
Unknown
Elevation
Unknown
Doppler factor
Unknown
Orbital elements
Apogee altitude
641.433 km
Perigee altitude
639.483 km
Semi-major axis
7,018.595 km
Eccentricity
0.00014
Inclination
97.682°
RAAN
9.7037°
Arg. of periapsis
58.2802°
True anomaly
301.84088°
Mean anomaly
301.8544°
Eccentric anomaly
301.84764°
Mean motion
3.6912 °/min
Orbital period
97.53 mins
BSTAR
0.000016886
Loading maneuver chart data...
Computing Atmospheric mass density...
Loading historical data...
Loading historical data...
Loading historical data...
Loading historical data...
Loading historical data...
Loading historical data...
Loading historical data...
Other satellites on launch #73 in the year 2012 (2012-12-18 UTC)

Documentation

Showing up to 5 results
|